Tracking 22459 objects as of 3-Mar-2021
HD Live streaming from Space Station
objects crossing your sky now

TITAN 3C TRANSTAGE DEB

Track TITAN 3C TRANSTAGE DEB now!
10-day predictions


NORAD ID: 19595
Int'l Code: 1965-108AB
Perigee: 406.3 km
Apogee: 20,990.1 km
Inclination: 27.0 °
Period: 369.9 minutes
Semi major axis: 17069 km
RCS: 0.0425 m2 (small)
Launch date: December 21, 1965
Source: United States (US)
Launch site: AIR FORCE EASTERN TEST RANGE (AFETR)

Note: This is SATELLITE DEBRIS
aabbcc
Your satellite tracking list
Your tracking list is empty




NASA's NSSDC Master Catalog

Two Line Element Set (TLE):
1 19595U 65108AB  21060.39932140  .00000437  00000-0  45003-3 0  9998
2 19595  27.0027  97.1537 6029502  31.4931 353.6398  3.89297848367300
Source of the keplerian elements: AFSPC